User: anonymous   Login
Location: Lourdes
(43.1000°N, 0.0500°W)
Time: 18:41:18
(UTC+00:00)
Language:

EXACTVIEW 9 - Orbit

View from above orbital plane
View from above orbital plane
View from above satellite
View from above satellite

Ground track
Ground track

The orbit data is extracted from the following two-line orbital elements,

1 40936U 15052G   21172.62292903  .00000769  00000-0  18375-4 0  9991
2 40936   6.0025 227.6550 0009902  88.1814 271.9447 14.76707487309821
Epoch (UTC): 21 June 2021 14:57:01
Eccentricity: 0.0009902
inclination: 6.0025°
perigee height: 633 km
apogee height: 646 km
right ascension of ascending node: 227.6550°
argument of perigee: 88.1814°
revolutions per day: 14.76707487
mean anomaly at epoch: 271.9447°
orbit number at epoch: 30982

The dashed part of the orbit path shows where the satellite is in the earth's shadow,  

DLR